{"data":{"norad_id":57818,"intl_designator":"2023-138L","name":"STARLINK-30401","alt_names":[],"object_type":"PAYLOAD","status":"ACTIVE","operator":null,"country":"US","launch_date":"2023-09-09","launch_site_code":"AFETR","launch_vehicle":null,"mission":null,"orbit_class":"UNKNOWN","rcs_meters":null,"size_class":null,"mass_kg":null,"dimensions":null,"purposes":["comms"],"wikipedia_slug":null,"has_3d_model":false,"image_url":null,"decayed_at":null,"tle_current":{"epoch":"2026-05-25T01:20:05.109216Z","epoch_age_seconds":71035,"freshness":"FRESH","line1":"1 57818U 23138L   26145.05561469  .00000892  00000+0  41946-4 0  9996","line2":"2 57818  43.0010 163.2284 0001344 267.5141  92.5557 15.27579467150319","mean_motion":15.27579467,"eccentricity":0.0001344,"inclination_deg":43.001,"raan_deg":163.2284,"arg_perigee_deg":267.5141,"mean_anomaly_deg":92.5557,"bstar":4.1946e-5,"rev_number":15031,"period_min":94.266781605019,"perigee_km":482.12854840805,"apogee_km":483.97283565967,"semimajor_km":6861.1876920339,"source":"CELESTRAK","updated_at":"2026-05-25T13:38:18.410489Z"}}}